Flag for Mauritania Weather past 2 weeks in Rosso, Mauritania

Now
81 °F

Passing clouds.


Feels Like: 87 °F
Forecast: 82 / 103 °F
Wind: 7 mph from North

Location: Saint Airport-Louis

Current Time: Aug 4, 2015 at 7:39:33 AM

Latest Report: Aug 4, 2015 at 7:00 AM


Visibility: N/A

Pressure: 29.86 "Hg

Humidity: 89%

Dew point: 77 °F

Location of RossoLocation

Historic Weather in Rosso — Graph

°F

Rosso temperature yesterday

Maximum temperature yesterday: 90 °F (at 11:00 AM)
Minimum temperature yesterday: 81 °F (at 6:00 AM)
Average temperature yesterday: 86 °F

Past Weeks' High & Low Weather Summary

 TemperatureHumidityPressure
High91 °F (Aug 2, 4:00 PM)100% (Aug 2, 6:00 AM)30.01 "Hg (Aug 2, 6:00 AM)
Low75 °F (Jul 21, 7:00 AM)55% (Jul 20, 2:00 PM)29.80 "Hg (Aug 1, 5:00 PM)
Average83 °F78%29.89 "Hg
* Reported Jul 20 6:00 AM — Aug 4 6:00 AM, Rosso, Weather by CustomWeather, © 2015

Note: Actual official high and low records may vary slightly from our data, if they occured in-between our weather recording intervals... More about our weather records

Advertising

Rosso weather history for previous 24 hours

 ConditionsComfort  
Time TempWeatherWind HumidityBarometerVisibility
6:00 AM
Tue, Aug 4
82 °FPassing clouds.9 mph84%29.86 "HgN/A
12:00 AM82 °FPassing clouds.7 mph89%29.95 "HgN/A
9:00 PM
Mon, Aug 3
82 °FPassing clouds.7 mph89%29.92 "HgN/A
8:00 PM84 °FPassing clouds.12 mph79%29.89 "HgN/A
7:00 PM86 °FPassing clouds.7 mph75%29.89 "HgN/A
6:00 PM88 °FPassing clouds.14 mph70%29.86 "HgN/A
5:00 PM88 °FPartly sunny.9 mph70%29.89 "HgN/A
4:00 PM88 °FPartly sunny.7 mph70%29.92 "HgN/A
3:00 PM88 °FPartly sunny.12 mph70%29.92 "HgN/A
2:00 PM90 °FPartly sunny.9 mph71%29.95 "HgN/A
1:00 PM90 °FPartly sunny.12 mph71%29.95 "HgN/A
12:00 PM90 °FScattered clouds.9 mph71%29.95 "HgN/A
11:00 AM90 °FScattered clouds.7 mph67%29.95 "HgN/A
10:00 AM86 °FPartly sunny.7 mph75%29.95 "HgN/A
9:00 AM86 °FPartly sunny.5 mph79%29.95 "HgN/A
8:00 AM82 °FPartly sunny.5 mph89%29.92 "HgN/A
7:00 AM81 °FPartly sunny.2 mph94%29.92 "HgN/A
Weather by CustomWeather, © 2015

See weather overviewHow to use our weather pages